Regional Weather Roundup
Issued by NWS Sterling, VA

Home | Current Version | Previous Version | Graphics & Text | Print | Product List | Glossary On
Versions: 1 2 3 4 5 6 7 8 9 10 11 12 13 14 15 16 17 18 19 20 21 22 23 24 25 26 27 28 29 30 31 32 33 34 35 36 37 38 39 40 41 42 43 44 45 46 47 48 49 50
000
ASUS41 KLWX 270110
RWRLWX

REGIONAL WEATHER ROUNDUP
NATIONAL WEATHER SERVICE BALTIMORE MD/WASHINGTON DC
900 PM EDT THU MAR 26 2015

Note: "FAIR" indicates few or no clouds below 12,000 feet
with no significant weather and/or obstructions to visibility.
 TC=TEMPERATURE CELSIUS

 * =Non NWS site. Station does not report precipitation (e.g. rain,
    snow, etc.), thunder, or fog.

DCZ001-MDZ009-015-VAZ040>042-051-053>054-270200-
WASHINGTON METRO

CITY           SKY/WX    TMP DP  RH WIND       PRES   REMARKS
WASHINGTON NAT LGT RAIN  67  59  75 NW16G25   29.66R
DULLES         CLOUDY    60  53  77 NW15      29.68R
ANDREWS AFB    LGT RAIN  66  57  73 NW13G21   29.64R
FT BELVOIR     CLOUDY    64  59  82 NW13      29.64R
QUANTICO       CLOUDY    69  53  56 W3        29.63R
COLLEGE PARK*  CLOUDY    63  55  77 NW8G18    29.65R
LEESBURG*      CLOUDY    59  55  88 N15G21    29.69R
MANASSAS*      CLOUDY    64  61  88 N12       29.65
GAITHERSBURG*  CLOUDY    57  52  82 NW10G17   29.71S

$$

MDZ006>007-011-014-270200-
BALTIMORE METRO

CITY           SKY/WX    TMP DP  RH WIND       PRES   REMARKS
BWI AIRPORT    CLOUDY    60  55  83 NW7       29.65R
MD SCIENCE CTR   N/A     61  55  81 MISG      29.66R
MARTIN STATE   MOCLDY    61  59  94 NW8       29.67R
ANNAPOLIS      LGT RAIN  57  53  86 NW10      29.63R

$$

MDZ012-015-019>023-270200-
MARYLAND EASTERN SHORE

CITY           SKY/WX    TMP DP  RH WIND       PRES   REMARKS
OCEAN CITY     FOG       52  52 100 SW14      29.67R VSB 1/2
SALISBURY      MOCLDY    61  59  93 S12       29.64S
BAY BRIDGE AP* RAIN      54  54 100 SW6G30    29.66R
CAMBRIDGE*     MOCLDY    61  55  82 S7        29.63R
EASTON*        CLEAR     63  59  88 SW8       29.66R

$$

MDZ017>025-270200-
SOUTHERN MARYLAND

CITY           SKY/WX    TMP DP  RH WIND       PRES   REMARKS
PATUXENT RIVER CLOUDY    64  58  80 S9        29.63R
ST INIGOES     CLOUDY    60  55  83 SE3       29.63R
LEONARDTOWN*   CLOUDY    63  55  77 S6        29.65R

$$

MDZ003>005-270200-
NORTH CENTRAL MARYLAND

CITY           SKY/WX    TMP DP  RH WIND       PRES   REMARKS
FREDERICK*     LGT RAIN  57  45  62 N7G17     29.73R
HAGERSTOWN APT LGT RAIN  49  41  74 NW16G28   29.74R
WESTMINSTER*   CLOUDY    54  48  82 NW12      29.69R

$$

MDZ501>502-270200-
WESTERN MARYLAND

CITY           SKY/WX    TMP DP  RH WIND       PRES   REMARKS
OAKLAND*       FOG       36 N/A N/A NW8       29.80R VSB 1/2
CUMBERLAND*    CLOUDY    50  37  62 NW7G22    29.85R

$$

VAZ025>031-270200-
SHENANDOAH VALLEY

CITY           SKY/WX    TMP DP  RH WIND       PRES   REMARKS
WINCHESTER*    CLOUDY    55  43  62 N8G23     29.73R
FRONT ROYAL*   CLOUDY    57  52  82 N12       29.68R
LURAY*         LGT RAIN  64  52  63 NW5       29.68R
NEW MARKET*    CLOUDY    60  52  73 CALM      29.68R
STAUNTON*      CLOUDY    58  54  86 CALM      29.70R
WAYNESBORO*    FAIR      55  54  96 CALM      29.70R

$$

WVZ021-048>050-054>055-270200-
EASTERN WEST VIRGINIA PANHANDLE

CITY           SKY/WX    TMP DP  RH WIND       PRES   REMARKS
MARTINSBURG    CLOUDY    53  44  71 N16G22    29.74R
PETERSBURG*    CLOUDY    51  40  66 NW15G24   29.78R

$$

VAZ036>039-050-270200-
CENTRAL FOOTHILLS

CITY           SKY/WX    TMP DP  RH WIND       PRES   REMARKS
CHARLOTTESVILL CLOUDY    61  55  81 NW5       29.66R
CULPEPER*      CLOUDY    66  61  82 NW5       29.65R
ORANGE*        CLOUDY    68  55  64 S6        29.66R
GORDONSVILLE*  CLOUDY    68  55  62 W6        29.65R
WARRENTON*     CLOUDY    64  64  99 N8        29.64R

$$

VAZ055>057-270200-
NORTH AND CENTRAL PIEDMONT

CITY           SKY/WX    TMP DP  RH WIND       PRES   REMARKS
FREDERICKSBRG* CLOUDY    71  55  56 SW5       29.62R
STAFFORD*      CLOUDY    69  51  54 CALM      29.67R

$$

NCZ024-NYZ072-PAZ021-071-VAZ022-071-270200-
OTHER REGIONAL OBSERVATIONS

CITY           SKY/WX    TMP DP  RH WIND       PRES   REMARKS
NEW YORK CITY  CLOUDY    56  52  86 N7        29.66R
PHILADELPHIA   MOCLDY    61  57  87 W9        29.63R
PITTSBURGH     LGT RAIN  40  37  89 NW14      29.85R
ROANOKE        LGT RAIN  59  55  87 NE10      29.70R
RICHMOND       CLOUDY    69  54  58 S10       29.66R
RALEIGH        CLOUDY    69  55  60 S9        29.73S

$$

ANZ530>537-270200-
MARINE OBSERVATIONS

STATION/POSITION TIME  TEMP    WIND        PRES
                       AIR SEA DIR/SP/G
                 (UTC) (F)     (DEG/KT/KT) (MB)
THOMAS PT LIGHT  0100                        N/A
BALT KEY BRIDGE  0000   63     220/  7/  8 1002.4R
COVE POINT       0000   60     200/ 11/ 12 1002.4F
LEWISETTA        0000   64 47              1003.0F
SOLOMONS ISLAND  0000      43                N/A
PINEY POINT      0000          130/  8/  9   N/A

$$




USA.gov is the U.S. government's official web portal to all federal, state and local government web resources and services.